Year,Month,Day,Hour,Minute,Value (Times are PST for temperature in C)
2012,09,21,00,00,9.70
2012,09,21,00,01,9.70
2012,09,21,00,02,9.70
2012,09,21,00,03,9.70
2012,09,21,00,04,9.60
2012,09,21,00,05,9.60
2012,09,21,00,06,9.60
2012,09,21,00,07,9.60
2012,09,21,00,08,9.60
2012,09,21,00,09,9.60
2012,09,21,00,10,9.50
2012,09,21,00,11,9.50
2012,09,21,00,12,9.50
2012,09,21,00,13,9.50
2012,09,21,00,14,9.50
2012,09,21,00,15,9.50
2012,09,21,00,16,9.40
2012,09,21,00,17,9.40
2012,09,21,00,18,9.40
2012,09,21,00,19,9.40
2012,09,21,00,20,9.40
2012,09,21,00,21,9.40
2012,09,21,00,22,9.50
2012,09,21,00,23,9.50
2012,09,21,00,24,9.50
2012,09,21,00,25,9.50
2012,09,21,00,26,9.50
2012,09,21,00,27,9.50
2012,09,21,00,28,9.50
2012,09,21,00,29,9.50
2012,09,21,00,30,9.50
2012,09,21,00,31,9.50
2012,09,21,00,32,9.50
2012,09,21,00,33,9.50
2012,09,21,00,34,9.50
2012,09,21,00,35,9.50
2012,09,21,00,36,9.60
2012,09,21,00,37,9.60
2012,09,21,00,38,9.60
2012,09,21,00,39,9.60
2012,09,21,00,40,9.60
2012,09,21,00,41,9.60
2012,09,21,00,42,9.60
2012,09,21,00,43,9.60
2012,09,21,00,44,9.60
2012,09,21,00,45,9.70
2012,09,21,00,46,9.70
2012,09,21,00,47,9.70
2012,09,21,00,48,9.70
2012,09,21,00,49,9.80
2012,09,21,00,50,9.80
2012,09,21,00,51,9.80
2012,09,21,00,52,9.90
2012,09,21,00,53,9.90
2012,09,21,00,54,9.90
2012,09,21,00,55,9.90
2012,09,21,00,56,9.90
2012,09,21,00,57,9.90
2012,09,21,00,58,9.90
2012,09,21,00,59,9.90
2012,09,21,01,00,9.80
2012,09,21,01,01,9.80
2012,09,21,01,02,9.80
2012,09,21,01,03,9.80
2012,09,21,01,04,9.80
2012,09,21,01,05,9.80
2012,09,21,01,06,9.80
2012,09,21,01,07,9.70
2012,09,21,01,08,9.70
2012,09,21,01,09,9.70
2012,09,21,01,10,9.70
2012,09,21,01,11,9.60
2012,09,21,01,12,9.60
2012,09,21,01,13,9.60
2012,09,21,01,14,9.60
2012,09,21,01,15,9.50
2012,09,21,01,16,9.50
2012,09,21,01,17,9.50
2012,09,21,01,18,9.40
2012,09,21,01,19,9.40
2012,09,21,01,20,9.40
2012,09,21,01,21,9.40
2012,09,21,01,22,9.40
2012,09,21,01,23,9.30
2012,09,21,01,24,9.30
2012,09,21,01,25,9.30
2012,09,21,01,26,9.30
2012,09,21,01,27,9.30
2012,09,21,01,28,9.20
2012,09,21,01,29,9.20
2012,09,21,01,30,9.20
2012,09,21,01,31,9.20
2012,09,21,01,32,9.20
2012,09,21,01,33,9.20
2012,09,21,01,34,9.20
2012,09,21,01,35,9.30
2012,09,21,01,36,9.30
2012,09,21,01,37,9.30
2012,09,21,01,38,9.30
2012,09,21,01,39,9.30
2012,09,21,01,40,9.30
2012,09,21,01,41,9.30
2012,09,21,01,42,9.30
2012,09,21,01,43,9.30
2012,09,21,01,44,9.30
2012,09,21,01,45,9.40
2012,09,21,01,46,9.40
2012,09,21,01,47,9.50
2012,09,21,01,48,9.60
2012,09,21,01,49,9.60
2012,09,21,01,50,9.60
2012,09,21,01,51,9.70
2012,09,21,01,52,9.70
2012,09,21,01,53,9.80
2012,09,21,01,54,9.80
2012,09,21,01,55,9.70
2012,09,21,01,56,9.70
2012,09,21,01,57,9.70
2012,09,21,01,58,9.60
2012,09,21,01,59,9.60
2012,09,21,02,00,9.60
2012,09,21,02,01,9.60
2012,09,21,02,02,9.60
2012,09,21,02,03,9.60
2012,09,21,02,04,9.50
2012,09,21,02,05,9.50
2012,09,21,02,06,9.40
2012,09,21,02,07,9.40
2012,09,21,02,08,9.30
2012,09,21,02,09,9.30
2012,09,21,02,10,9.30
2012,09,21,02,11,9.30
2012,09,21,02,12,9.30
2012,09,21,02,13,9.40
2012,09,21,02,14,9.40
2012,09,21,02,15,9.40
2012,09,21,02,16,9.40
2012,09,21,02,17,9.50
2012,09,21,02,18,9.50
2012,09,21,02,19,9.50
2012,09,21,02,20,9.60
2012,09,21,02,21,9.60
2012,09,21,02,22,9.60
2012,09,21,02,23,9.60
2012,09,21,02,24,9.50
2012,09,21,02,25,9.50
2012,09,21,02,26,9.50
2012,09,21,02,27,9.50
2012,09,21,02,28,9.50
2012,09,21,02,29,9.50
2012,09,21,02,30,9.50
2012,09,21,02,31,9.50
2012,09,21,02,32,9.40
2012,09,21,02,33,9.40
2012,09,21,02,34,9.40
2012,09,21,02,35,9.30
2012,09,21,02,36,9.30
2012,09,21,02,37,9.30
2012,09,21,02,38,9.20
2012,09,21,02,39,9.10
2012,09,21,02,40,9.10
2012,09,21,02,41,9.00
2012,09,21,02,42,9.00
2012,09,21,02,43,8.90
2012,09,21,02,44,8.90
2012,09,21,02,45,8.80
2012,09,21,02,46,8.80
2012,09,21,02,47,8.70
2012,09,21,02,48,8.70
2012,09,21,02,49,8.60
2012,09,21,02,50,8.60
2012,09,21,02,51,8.50
2012,09,21,02,52,8.50
2012,09,21,02,53,8.40
2012,09,21,02,54,8.40
2012,09,21,02,55,8.30
2012,09,21,02,56,8.30
2012,09,21,02,57,8.30
2012,09,21,02,58,8.30
2012,09,21,02,59,8.20
2012,09,21,03,00,8.20
2012,09,21,03,01,8.20
2012,09,21,03,02,8.20
2012,09,21,03,03,8.20
2012,09,21,03,04,8.20
2012,09,21,03,05,8.20
2012,09,21,03,06,8.20
2012,09,21,03,07,8.10
2012,09,21,03,08,8.10
2012,09,21,03,09,8.10
2012,09,21,03,10,8.10
2012,09,21,03,11,8.10
2012,09,21,03,12,8.10
2012,09,21,03,13,8.10
2012,09,21,03,14,8.10
2012,09,21,03,15,8.10
2012,09,21,03,16,8.10
2012,09,21,03,17,8.10
2012,09,21,03,18,8.10
2012,09,21,03,19,8.10
2012,09,21,03,20,8.10
2012,09,21,03,21,8.20
2012,09,21,03,22,8.20
2012,09,21,03,23,8.20
2012,09,21,03,24,8.20
2012,09,21,03,25,8.20
2012,09,21,03,26,8.20
2012,09,21,03,27,8.20
2012,09,21,03,28,8.20
2012,09,21,03,29,8.20
2012,09,21,03,30,8.20
2012,09,21,03,31,8.20
2012,09,21,03,32,8.10
2012,09,21,03,33,8.10
2012,09,21,03,34,8.00
2012,09,21,03,35,7.90
2012,09,21,03,36,7.90
2012,09,21,03,37,7.90
2012,09,21,03,38,7.90
2012,09,21,03,39,7.90
2012,09,21,03,40,7.90
2012,09,21,03,41,7.90
2012,09,21,03,42,7.80
2012,09,21,03,43,7.80
2012,09,21,03,44,7.80
2012,09,21,03,45,7.80
2012,09,21,03,46,7.80
2012,09,21,03,47,7.80
2012,09,21,03,48,7.80
2012,09,21,03,49,7.80
2012,09,21,03,50,7.70
2012,09,21,03,51,7.70
2012,09,21,03,52,7.70
2012,09,21,03,53,7.70
2012,09,21,03,54,7.70
2012,09,21,03,55,7.60
2012,09,21,03,56,7.60
2012,09,21,03,57,7.60
2012,09,21,03,58,7.60
2012,09,21,03,59,7.60
2012,09,21,04,00,7.60
2012,09,21,04,01,7.60
2012,09,21,04,02,7.50
2012,09,21,04,03,7.50
2012,09,21,04,04,7.40
2012,09,21,04,05,7.40
2012,09,21,04,06,7.40
2012,09,21,04,07,7.30
2012,09,21,04,08,7.30
2012,09,21,04,09,7.30
2012,09,21,04,10,7.30
2012,09,21,04,11,7.30
2012,09,21,04,12,7.30
2012,09,21,04,13,7.30
2012,09,21,04,14,7.30
2012,09,21,04,15,7.30
2012,09,21,04,16,7.30
2012,09,21,04,17,7.30
2012,09,21,04,18,7.30
2012,09,21,04,19,7.30
2012,09,21,04,20,7.30
2012,09,21,04,21,7.30
2012,09,21,04,22,7.30
2012,09,21,04,23,7.30
2012,09,21,04,24,7.40
2012,09,21,04,25,7.30
2012,09,21,04,26,7.30
2012,09,21,04,27,7.30
2012,09,21,04,28,7.30
2012,09,21,04,29,7.30
2012,09,21,04,30,7.30
2012,09,21,04,31,7.30
2012,09,21,04,32,7.30
2012,09,21,04,33,7.30
2012,09,21,04,34,7.30
2012,09,21,04,35,7.30
2012,09,21,04,36,7.30
2012,09,21,04,37,7.30
2012,09,21,04,38,7.30
2012,09,21,04,39,7.30
2012,09,21,04,40,7.30
2012,09,21,04,41,7.30
2012,09,21,04,42,7.30
2012,09,21,04,43,7.30
2012,09,21,04,44,7.30
2012,09,21,04,45,7.30
2012,09,21,04,46,7.30
2012,09,21,04,47,7.30
2012,09,21,04,48,7.30
2012,09,21,04,49,7.30
2012,09,21,04,50,7.30
2012,09,21,04,51,7.40
2012,09,21,04,52,7.40
2012,09,21,04,53,7.50
2012,09,21,04,54,7.50
2012,09,21,04,55,7.50
2012,09,21,04,56,7.50
2012,09,21,04,57,7.60
2012,09,21,04,58,7.60
2012,09,21,04,59,7.60
2012,09,21,05,00,7.60
2012,09,21,05,01,7.60
2012,09,21,05,02,7.60
2012,09,21,05,03,7.60
2012,09,21,05,04,7.60
2012,09,21,05,05,7.60
2012,09,21,05,06,7.60
2012,09,21,05,07,7.60
2012,09,21,05,08,7.50
2012,09,21,05,09,7.50
2012,09,21,05,10,7.50
2012,09,21,05,11,7.50
2012,09,21,05,12,7.50
2012,09,21,05,13,7.40
2012,09,21,05,14,7.40
2012,09,21,05,15,7.40
2012,09,21,05,16,7.40
2012,09,21,05,17,7.40
2012,09,21,05,18,7.40
2012,09,21,05,19,7.40
2012,09,21,05,20,7.40
2012,09,21,05,21,7.40
2012,09,21,05,22,7.40
2012,09,21,05,23,7.40
2012,09,21,05,24,7.40
2012,09,21,05,25,7.40
2012,09,21,05,26,7.40
2012,09,21,05,27,7.40
2012,09,21,05,28,7.40
2012,09,21,05,29,7.30
2012,09,21,05,30,7.30
2012,09,21,05,31,7.30
2012,09,21,05,32,7.20
2012,09,21,05,33,7.20
2012,09,21,05,34,7.20
2012,09,21,05,35,7.20
2012,09,21,05,36,7.20
2012,09,21,05,37,7.20
2012,09,21,05,38,7.20
2012,09,21,05,39,7.20
2012,09,21,05,40,7.20
2012,09,21,05,41,7.20
2012,09,21,05,42,7.20
2012,09,21,05,43,7.20
2012,09,21,05,44,7.20
2012,09,21,05,45,7.20
2012,09,21,05,46,7.20
2012,09,21,05,47,7.10
2012,09,21,05,48,7.10
2012,09,21,05,49,7.10
2012,09,21,05,50,7.10
2012,09,21,05,51,7.00
2012,09,21,05,52,7.00
2012,09,21,05,53,6.90
2012,09,21,05,54,6.90
2012,09,21,05,55,6.90
2012,09,21,05,56,6.80
2012,09,21,05,57,6.80
2012,09,21,05,58,6.80
2012,09,21,05,59,6.80
2012,09,21,06,00,6.80
2012,09,21,06,01,6.80
2012,09,21,06,02,6.80
2012,09,21,06,03,6.80
2012,09,21,06,04,6.80
2012,09,21,06,05,6.80
2012,09,21,06,06,6.80
2012,09,21,06,07,6.70
2012,09,21,06,08,6.70
2012,09,21,06,09,6.70
2012,09,21,06,10,6.80
2012,09,21,06,11,6.70
2012,09,21,06,12,6.70
2012,09,21,06,13,6.80
2012,09,21,06,14,6.80
2012,09,21,06,15,6.80
2012,09,21,06,16,6.80
2012,09,21,06,17,6.80
2012,09,21,06,18,6.80
2012,09,21,06,19,6.80
2012,09,21,06,20,6.70
2012,09,21,06,21,6.70
2012,09,21,06,22,6.70
2012,09,21,06,23,6.60
2012,09,21,06,24,6.60
2012,09,21,06,25,6.60
2012,09,21,06,26,6.60
2012,09,21,06,27,6.60
2012,09,21,06,28,6.60
2012,09,21,06,29,6.60
2012,09,21,06,30,6.60
2012,09,21,06,31,6.60
2012,09,21,06,32,6.50
2012,09,21,06,33,6.50
2012,09,21,06,34,6.50
2012,09,21,06,35,6.40
2012,09,21,06,36,6.40
2012,09,21,06,37,6.40
2012,09,21,06,38,6.40
2012,09,21,06,39,6.40
2012,09,21,06,40,6.40
2012,09,21,06,41,6.40
2012,09,21,06,42,6.40
2012,09,21,06,43,6.40
2012,09,21,06,44,6.40
2012,09,21,06,45,6.40
2012,09,21,06,46,6.40
2012,09,21,06,47,6.40
2012,09,21,06,48,6.40
2012,09,21,06,49,6.40
2012,09,21,06,50,6.40
2012,09,21,06,51,6.40
2012,09,21,06,52,6.30
2012,09,21,06,53,6.30
2012,09,21,06,54,6.30
2012,09,21,06,55,6.20
2012,09,21,06,56,6.20
2012,09,21,06,57,6.20
2012,09,21,06,58,6.20
2012,09,21,06,59,6.20
2012,09,21,07,00,6.20
2012,09,21,07,01,6.20
2012,09,21,07,02,6.20
2012,09,21,07,03,6.20
2012,09,21,07,04,6.20
2012,09,21,07,05,6.20
2012,09,21,07,06,6.20
2012,09,21,07,07,6.20
2012,09,21,07,08,6.10
2012,09,21,07,09,6.10
2012,09,21,07,10,6.10
2012,09,21,07,11,6.10
2012,09,21,07,12,6.10
2012,09,21,07,13,6.10
2012,09,21,07,14,6.00
2012,09,21,07,15,6.00
2012,09,21,07,16,6.00
2012,09,21,07,17,6.10
2012,09,21,07,18,6.00
2012,09,21,07,19,6.00
2012,09,21,07,20,6.10
2012,09,21,07,21,6.10
2012,09,21,07,22,6.10
2012,09,21,07,23,6.10
2012,09,21,07,24,6.10
2012,09,21,07,25,6.10
2012,09,21,07,26,6.10
2012,09,21,07,27,6.10
2012,09,21,07,28,6.10
2012,09,21,07,29,6.00
2012,09,21,07,30,6.00
2012,09,21,07,31,6.00
2012,09,21,07,32,5.90
2012,09,21,07,33,5.90
2012,09,21,07,34,5.90
2012,09,21,07,35,5.90
2012,09,21,07,36,5.90
2012,09,21,07,37,5.80
2012,09,21,07,38,5.80
2012,09,21,07,39,5.90
2012,09,21,07,40,5.90
2012,09,21,07,41,5.90
2012,09,21,07,42,5.90
2012,09,21,07,43,5.90
2012,09,21,07,44,5.90
2012,09,21,07,45,5.90
2012,09,21,07,46,5.90
2012,09,21,07,47,6.00
2012,09,21,07,48,6.00
2012,09,21,07,49,5.90
2012,09,21,07,50,5.90
2012,09,21,07,51,5.90
2012,09,21,07,52,5.90
2012,09,21,07,53,5.90
2012,09,21,07,54,5.90
2012,09,21,07,55,6.00
2012,09,21,07,56,6.00
2012,09,21,07,57,6.00
2012,09,21,07,58,6.00
2012,09,21,07,59,6.00
2012,09,21,08,00,5.90
2012,09,21,08,01,5.90
2012,09,21,08,02,6.00
2012,09,21,08,03,6.00
2012,09,21,08,04,6.00
2012,09,21,08,05,6.00
2012,09,21,08,06,6.00
2012,09,21,08,07,6.00
2012,09,21,08,08,6.00
2012,09,21,08,09,6.00
2012,09,21,08,10,6.00
2012,09,21,08,11,6.00
2012,09,21,08,12,6.00
2012,09,21,08,13,6.00
2012,09,21,08,14,6.00
2012,09,21,08,15,5.90
2012,09,21,08,16,5.90
2012,09,21,08,17,5.90
2012,09,21,08,18,5.90
2012,09,21,08,19,5.90
2012,09,21,08,20,5.90
2012,09,21,08,21,5.90
2012,09,21,08,22,5.90
2012,09,21,08,23,5.90
2012,09,21,08,24,5.90
2012,09,21,08,25,5.80
2012,09,21,08,26,5.80
2012,09,21,08,27,5.80
2012,09,21,08,28,5.80
2012,09,21,08,29,5.80
2012,09,21,08,30,5.80
2012,09,21,08,31,5.90
2012,09,21,08,32,5.90
2012,09,21,08,33,6.00
2012,09,21,08,34,6.00
2012,09,21,08,35,6.10
2012,09,21,08,36,6.10
2012,09,21,08,37,6.20
2012,09,21,08,38,6.20
2012,09,21,08,39,6.20
2012,09,21,08,40,6.20
2012,09,21,08,41,6.20
2012,09,21,08,42,6.20
2012,09,21,08,43,6.30
2012,09,21,08,44,6.30
2012,09,21,08,45,6.30
2012,09,21,08,46,6.30
2012,09,21,08,47,6.30
2012,09,21,08,48,6.40
2012,09,21,08,49,6.40
2012,09,21,08,50,6.40
2012,09,21,08,51,6.40
2012,09,21,08,52,6.40
2012,09,21,08,53,6.50
2012,09,21,08,54,6.50
2012,09,21,08,55,6.50
2012,09,21,08,56,6.60
2012,09,21,08,57,6.60
2012,09,21,08,58,6.60
2012,09,21,08,59,6.60
2012,09,21,09,00,6.60
2012,09,21,09,01,6.60
2012,09,21,09,02,6.60
2012,09,21,09,03,6.60
2012,09,21,09,04,6.60
2012,09,21,09,05,6.60
2012,09,21,09,06,6.60
2012,09,21,09,07,6.60
2012,09,21,09,08,6.60
2012,09,21,09,09,6.60
2012,09,21,09,10,6.60
2012,09,21,09,11,6.60
2012,09,21,09,12,6.60
2012,09,21,09,13,6.60
2012,09,21,09,14,6.60
2012,09,21,09,15,6.60
2012,09,21,09,16,6.60
2012,09,21,09,17,6.60
2012,09,21,09,18,6.60
2012,09,21,09,19,6.70
2012,09,21,09,20,6.70
2012,09,21,09,21,6.70
2012,09,21,09,22,6.70
2012,09,21,09,23,6.70
2012,09,21,09,24,6.70
2012,09,21,09,25,6.80
2012,09,21,09,26,6.80
2012,09,21,09,27,6.80
2012,09,21,09,28,6.80
2012,09,21,09,29,6.80
2012,09,21,09,30,6.80
2012,09,21,09,31,6.90
2012,09,21,09,32,6.90
2012,09,21,09,33,6.90
2012,09,21,09,34,6.90
2012,09,21,09,35,7.00
2012,09,21,09,36,7.00
2012,09,21,09,37,7.00
2012,09,21,09,38,7.00
2012,09,21,09,39,7.00
2012,09,21,09,40,7.00
2012,09,21,09,41,7.00
2012,09,21,09,42,7.00
2012,09,21,09,43,7.00
2012,09,21,09,44,7.10
2012,09,21,09,45,7.10
2012,09,21,09,46,7.10
2012,09,21,09,47,7.10
2012,09,21,09,48,7.10
2012,09,21,09,49,7.10
2012,09,21,09,50,7.10
2012,09,21,09,51,7.10
2012,09,21,09,52,7.10
2012,09,21,09,53,7.10
2012,09,21,09,54,7.10
2012,09,21,09,55,7.10
2012,09,21,09,56,7.10
2012,09,21,09,57,7.10
2012,09,21,09,58,7.10
2012,09,21,09,59,7.10
2012,09,21,10,00,7.10
2012,09,21,10,01,7.10
2012,09,21,10,02,7.10
2012,09,21,10,03,7.10
2012,09,21,10,04,7.10
2012,09,21,10,05,7.10
2012,09,21,10,06,7.10
2012,09,21,10,07,7.10
2012,09,21,10,08,7.10
2012,09,21,10,09,7.10
2012,09,21,10,10,7.10
2012,09,21,10,11,7.10
2012,09,21,10,12,7.10
2012,09,21,10,13,7.10
2012,09,21,10,14,7.10
2012,09,21,10,15,7.10
2012,09,21,10,16,7.10
2012,09,21,10,17,7.10
2012,09,21,10,18,7.10
2012,09,21,10,19,7.10
2012,09,21,10,20,7.10
2012,09,21,10,21,7.20
2012,09,21,10,22,7.20
2012,09,21,10,23,7.20
2012,09,21,10,24,7.20
2012,09,21,10,25,7.20
2012,09,21,10,26,7.20
2012,09,21,10,27,7.20
2012,09,21,10,28,7.20
2012,09,21,10,29,7.30
2012,09,21,10,30,7.30
2012,09,21,10,31,7.30
2012,09,21,10,32,7.30
2012,09,21,10,33,7.30
2012,09,21,10,34,7.30
2012,09,21,10,35,7.30
2012,09,21,10,36,7.30
2012,09,21,10,37,7.30
2012,09,21,10,38,7.30
2012,09,21,10,39,7.20
2012,09,21,10,40,7.20
2012,09,21,10,41,7.20
2012,09,21,10,42,7.20
2012,09,21,10,43,7.20
2012,09,21,10,44,7.20
2012,09,21,10,45,7.20
2012,09,21,10,46,7.20
2012,09,21,10,47,7.20
2012,09,21,10,48,7.20
2012,09,21,10,49,7.30
2012,09,21,10,50,7.30
2012,09,21,10,51,7.30
2012,09,21,10,52,7.30
2012,09,21,10,53,7.30
2012,09,21,10,54,7.40
2012,09,21,10,55,7.40
2012,09,21,10,56,7.40
2012,09,21,10,57,7.50
2012,09,21,10,58,7.50
2012,09,21,10,59,7.60
2012,09,21,11,00,7.60
2012,09,21,11,01,7.60
2012,09,21,11,02,7.60
2012,09,21,11,03,7.70
2012,09,21,11,04,7.70
2012,09,21,11,05,7.70
2012,09,21,11,06,7.70
2012,09,21,11,07,7.80
2012,09,21,11,08,7.80
2012,09,21,11,09,7.80
2012,09,21,11,10,7.80
2012,09,21,11,11,7.80
2012,09,21,11,12,7.80
2012,09,21,11,13,7.80
2012,09,21,11,14,7.80
2012,09,21,11,15,7.80
2012,09,21,11,16,7.80
2012,09,21,11,17,7.80
2012,09,21,11,18,7.80
2012,09,21,11,19,7.80
2012,09,21,11,20,7.80
2012,09,21,11,21,7.80
2012,09,21,11,22,7.80
2012,09,21,11,23,7.80
2012,09,21,11,24,7.90
2012,09,21,11,25,7.90
2012,09,21,11,26,7.90
2012,09,21,11,27,8.00
2012,09,21,11,28,8.00
2012,09,21,11,29,8.00
2012,09,21,11,30,8.00
2012,09,21,11,31,8.00
2012,09,21,11,32,8.00
2012,09,21,11,33,8.10
2012,09,21,11,34,8.10
2012,09,21,11,35,8.10
2012,09,21,11,36,8.20
2012,09,21,11,37,8.20
2012,09,21,11,38,8.20
2012,09,21,11,39,8.20
2012,09,21,11,40,8.30
2012,09,21,11,41,8.30
2012,09,21,11,42,8.30
2012,09,21,11,43,8.30
2012,09,21,11,44,8.30
2012,09,21,11,45,8.40
2012,09,21,11,46,8.40
2012,09,21,11,47,8.50
2012,09,21,11,48,8.50
2012,09,21,11,49,8.60
2012,09,21,11,50,8.60
2012,09,21,11,51,8.70
2012,09,21,11,52,8.70
2012,09,21,11,53,8.80
2012,09,21,11,54,8.80
2012,09,21,11,55,8.80
2012,09,21,11,56,8.90
2012,09,21,11,57,8.90
2012,09,21,11,58,8.90
2012,09,21,11,59,8.90
2012,09,21,12,00,8.90
2012,09,21,12,01,9.00
2012,09,21,12,02,9.00
2012,09,21,12,03,9.00
2012,09,21,12,04,9.10
2012,09,21,12,05,9.10
2012,09,21,12,06,9.10
2012,09,21,12,07,9.20
2012,09,21,12,08,9.20
2012,09,21,12,09,9.20
2012,09,21,12,10,9.20
2012,09,21,12,11,9.30
2012,09,21,12,12,9.30
2012,09,21,12,13,9.40
2012,09,21,12,14,9.40
2012,09,21,12,15,9.50
2012,09,21,12,16,9.60
2012,09,21,12,17,9.60
2012,09,21,12,18,9.70
2012,09,21,12,19,9.80
2012,09,21,12,20,9.80
2012,09,21,12,21,9.90
2012,09,21,12,22,10.00
2012,09,21,12,23,10.00
2012,09,21,12,24,10.10
2012,09,21,12,25,10.10
2012,09,21,12,26,10.20
2012,09,21,12,27,10.20
2012,09,21,12,28,10.30
2012,09,21,12,29,10.30
2012,09,21,12,30,10.40
2012,09,21,12,31,10.40
2012,09,21,12,32,10.50
2012,09,21,12,33,10.50
2012,09,21,12,34,10.60
2012,09,21,12,35,10.60
2012,09,21,12,36,10.70
2012,09,21,12,37,10.70
2012,09,21,12,38,10.80
2012,09,21,12,39,10.80
2012,09,21,12,40,10.90
2012,09,21,12,41,10.90
2012,09,21,12,42,10.90
2012,09,21,12,43,11.00
2012,09,21,12,44,11.00
2012,09,21,12,45,11.10
2012,09,21,12,46,11.10
2012,09,21,12,47,11.10
2012,09,21,12,48,11.20
2012,09,21,12,49,11.20
2012,09,21,12,50,11.20
2012,09,21,12,51,11.20
2012,09,21,12,52,11.20
2012,09,21,12,53,11.20
2012,09,21,12,54,11.20
2012,09,21,12,55,11.20
2012,09,21,12,56,11.20
2012,09,21,12,57,11.20
2012,09,21,12,58,11.30
2012,09,21,12,59,11.30
2012,09,21,13,00,11.30
2012,09,21,13,01,11.40
2012,09,21,13,02,11.40
2012,09,21,13,03,11.50
2012,09,21,13,04,11.50
2012,09,21,13,05,11.60
2012,09,21,13,06,11.70
2012,09,21,13,07,11.70
2012,09,21,13,08,11.70
2012,09,21,13,09,11.80
2012,09,21,13,10,11.80
2012,09,21,13,11,11.90
2012,09,21,13,12,11.90
2012,09,21,13,13,11.90
2012,09,21,13,14,12.00
2012,09,21,13,15,12.00
2012,09,21,13,16,12.00
2012,09,21,13,17,12.10
2012,09,21,13,18,12.10
2012,09,21,13,19,12.10
2012,09,21,13,20,12.10
2012,09,21,13,21,12.10
2012,09,21,13,22,12.20
2012,09,21,13,23,12.20
2012,09,21,13,24,12.20
2012,09,21,13,25,12.20
2012,09,21,13,26,12.30
2012,09,21,13,27,12.30
2012,09,21,13,28,12.40
2012,09,21,13,29,12.40
2012,09,21,13,30,12.50
2012,09,21,13,31,12.60
2012,09,21,13,32,12.70
2012,09,21,13,33,12.80
2012,09,21,13,34,12.80
2012,09,21,13,35,12.90
2012,09,21,13,36,13.00
2012,09,21,13,37,13.10
2012,09,21,13,38,13.20
2012,09,21,13,39,13.20
2012,09,21,13,40,13.30
2012,09,21,13,41,13.40
2012,09,21,13,42,13.50
2012,09,21,13,43,13.50
2012,09,21,13,44,13.60
2012,09,21,13,45,13.70
2012,09,21,13,46,13.70
2012,09,21,13,47,13.80
2012,09,21,13,48,13.80
2012,09,21,13,49,13.90
2012,09,21,13,50,14.00
2012,09,21,13,51,14.00
2012,09,21,13,52,14.10
2012,09,21,13,53,14.20
2012,09,21,13,54,14.30
2012,09,21,13,55,14.40
2012,09,21,13,56,14.50
2012,09,21,13,57,14.50
2012,09,21,13,58,14.60
2012,09,21,13,59,14.60
2012,09,21,14,00,14.60
2012,09,21,14,01,14.70
2012,09,21,14,02,14.70
2012,09,21,14,03,14.70
2012,09,21,14,04,14.70
2012,09,21,14,05,14.70
2012,09,21,14,06,14.70
2012,09,21,14,07,14.80
2012,09,21,14,08,14.80
2012,09,21,14,09,14.80
2012,09,21,14,10,14.90
2012,09,21,14,11,14.90
2012,09,21,14,12,15.00
2012,09,21,14,13,15.00
2012,09,21,14,14,15.10
2012,09,21,14,15,15.10
2012,09,21,14,16,15.00
2012,09,21,14,17,15.00
2012,09,21,14,18,15.00
2012,09,21,14,19,15.10
2012,09,21,14,20,15.10
2012,09,21,14,21,15.10
2012,09,21,14,22,15.10
2012,09,21,14,23,15.10
2012,09,21,14,24,15.20
2012,09,21,14,25,15.20
2012,09,21,14,26,15.20
2012,09,21,14,27,15.20
2012,09,21,14,28,15.30
2012,09,21,14,29,15.30
2012,09,21,14,30,15.40
2012,09,21,14,31,15.40
2012,09,21,14,32,15.50
2012,09,21,14,33,15.60
2012,09,21,14,34,15.60
2012,09,21,14,35,15.70
2012,09,21,14,36,15.70
2012,09,21,14,37,15.80
2012,09,21,14,38,15.80
2012,09,21,14,39,15.90
2012,09,21,14,40,16.00
2012,09,21,14,41,16.00
2012,09,21,14,42,16.10
2012,09,21,14,43,16.10
2012,09,21,14,44,16.20
2012,09,21,14,45,16.30
2012,09,21,14,46,16.30
2012,09,21,14,47,16.30
2012,09,21,14,48,16.40
2012,09,21,14,49,16.40
2012,09,21,14,50,16.40
2012,09,21,14,51,16.40
2012,09,21,14,52,16.40
2012,09,21,14,53,16.40
2012,09,21,14,54,16.40
2012,09,21,14,55,16.40
2012,09,21,14,56,16.40
2012,09,21,14,57,16.40
2012,09,21,14,58,16.40
2012,09,21,14,59,16.40
2012,09,21,15,00,16.50
2012,09,21,15,01,16.50
2012,09,21,15,02,16.50
2012,09,21,15,03,16.60
2012,09,21,15,04,16.60
2012,09,21,15,05,16.70
2012,09,21,15,06,16.70
2012,09,21,15,07,16.80
2012,09,21,15,08,16.80
2012,09,21,15,09,16.80
2012,09,21,15,10,16.90
2012,09,21,15,11,16.90
2012,09,21,15,12,17.00
2012,09,21,15,13,17.00
2012,09,21,15,14,17.10
2012,09,21,15,15,17.10
2012,09,21,15,16,17.20
2012,09,21,15,17,17.20
2012,09,21,15,18,17.30
2012,09,21,15,19,17.40
2012,09,21,15,20,17.50
2012,09,21,15,21,17.50
2012,09,21,15,22,17.60
2012,09,21,15,23,17.70
2012,09,21,15,24,17.70
2012,09,21,15,25,17.70
2012,09,21,15,26,17.80
2012,09,21,15,27,17.80
2012,09,21,15,28,17.80
2012,09,21,15,29,17.90
2012,09,21,15,30,17.90
2012,09,21,15,31,18.00
2012,09,21,15,32,18.00
2012,09,21,15,33,18.10
2012,09,21,15,34,18.10
2012,09,21,15,35,18.10
2012,09,21,15,36,18.10
2012,09,21,15,37,18.20
2012,09,21,15,38,18.20
2012,09,21,15,39,18.30
2012,09,21,15,40,18.30
2012,09,21,15,41,18.30
2012,09,21,15,42,18.30
2012,09,21,15,43,18.40
2012,09,21,15,44,18.40
2012,09,21,15,45,18.40
2012,09,21,15,46,18.40
2012,09,21,15,47,18.50
2012,09,21,15,48,18.50
2012,09,21,15,49,18.60
2012,09,21,15,50,18.60
2012,09,21,15,51,18.60
2012,09,21,15,52,18.70
2012,09,21,15,53,18.70
2012,09,21,15,54,18.80
2012,09,21,15,55,18.80
2012,09,21,15,56,18.80
2012,09,21,15,57,18.80
2012,09,21,15,58,18.80
2012,09,21,15,59,18.80
2012,09,21,16,00,18.80
2012,09,21,16,01,18.80
2012,09,21,16,02,18.80
2012,09,21,16,03,18.80
2012,09,21,16,04,18.80
2012,09,21,16,05,18.80
2012,09,21,16,06,18.90
2012,09,21,16,07,18.90
2012,09,21,16,08,18.90
2012,09,21,16,09,19.00
2012,09,21,16,10,19.00
2012,09,21,16,11,19.00
2012,09,21,16,12,19.10
2012,09,21,16,13,19.10
2012,09,21,16,14,19.10
2012,09,21,16,15,19.10
2012,09,21,16,16,19.10
2012,09,21,16,17,19.00
2012,09,21,16,18,18.90
2012,09,21,16,19,18.90
2012,09,21,16,20,18.80
2012,09,21,16,21,18.80
2012,09,21,16,22,18.80
2012,09,21,16,23,18.80
2012,09,21,16,24,18.80
2012,09,21,16,25,18.80
2012,09,21,16,26,18.80
2012,09,21,16,27,18.90
2012,09,21,16,28,18.90
2012,09,21,16,29,19.00
2012,09,21,16,30,19.10
2012,09,21,16,31,19.10
2012,09,21,16,32,19.20
2012,09,21,16,33,19.20
2012,09,21,16,34,19.30
2012,09,21,16,35,19.30
2012,09,21,16,36,19.30
2012,09,21,16,37,19.40
2012,09,21,16,38,19.40
2012,09,21,16,39,19.40
2012,09,21,16,40,19.40
2012,09,21,16,41,19.40
2012,09,21,16,42,19.50
2012,09,21,16,43,19.50
2012,09,21,16,44,19.50
2012,09,21,16,45,19.50
2012,09,21,16,46,19.60
2012,09,21,16,47,19.60
2012,09,21,16,48,19.60
2012,09,21,16,49,19.60
2012,09,21,16,50,19.60
2012,09,21,16,51,19.60
2012,09,21,16,52,19.60
2012,09,21,16,53,19.60
2012,09,21,16,54,19.60
2012,09,21,16,55,19.60
2012,09,21,16,56,19.60
2012,09,21,16,57,19.60
2012,09,21,16,58,19.60
2012,09,21,16,59,19.60
2012,09,21,17,00,19.70
2012,09,21,17,01,19.70
2012,09,21,17,02,19.70
2012,09,21,17,03,19.70
2012,09,21,17,04,19.60
2012,09,21,17,05,19.50
2012,09,21,17,06,19.40
2012,09,21,17,07,19.30
2012,09,21,17,08,19.30
2012,09,21,17,09,19.20
2012,09,21,17,10,19.10
2012,09,21,17,11,19.00
2012,09,21,17,12,18.90
2012,09,21,17,13,18.80
2012,09,21,17,14,18.80
2012,09,21,17,15,18.70
2012,09,21,17,16,18.60
2012,09,21,17,17,18.60
2012,09,21,17,18,18.50
2012,09,21,17,19,18.50
2012,09,21,17,20,18.50
2012,09,21,17,21,18.50
2012,09,21,17,22,18.50
2012,09,21,17,23,18.50
2012,09,21,17,24,18.50
2012,09,21,17,25,18.50
2012,09,21,17,26,18.50
2012,09,21,17,27,18.50
2012,09,21,17,28,18.40
2012,09,21,17,29,18.40
2012,09,21,17,30,18.40
2012,09,21,17,31,18.40
2012,09,21,17,32,18.40
2012,09,21,17,33,18.40
2012,09,21,17,34,18.30
2012,09,21,17,35,18.30
2012,09,21,17,36,18.30
2012,09,21,17,37,18.30
2012,09,21,17,38,18.20
2012,09,21,17,39,18.20
2012,09,21,17,40,18.20
2012,09,21,17,41,18.10
2012,09,21,17,42,18.10
2012,09,21,17,43,18.10
2012,09,21,17,44,18.00
2012,09,21,17,45,18.00
2012,09,21,17,46,18.00
2012,09,21,17,47,18.00
2012,09,21,17,48,18.00
2012,09,21,17,49,18.10
2012,09,21,17,50,18.10
2012,09,21,17,51,18.10